This demonstration page uses our WeatherBlox Daily Observations layout. Learn more.

Left ArrowRight Arrow

44.89941, -97.11507

Hourly Observations for June 29, 2018

Temp ( °F °C ) Dew Point ( °F °C ) Humidity (%) Winds ( mph kmh ) Pressure ( in mb ) Visibility ( mi km ) Precip ( " mm )
12:53 am 00:53 Clear 74 23.3 72 22.2 94 94 SE 9 15 29.60 1003 10 16 0.00 0.00
1:53 am 01:53 Clear 74 23.3 71 21.7 91 91 SE 14 22 29.56 1001 10 16 0.00 0.00
2:53 am 02:53 Clear 75 23.9 73 22.8 94 94 SSE 18 30 29.52 1000 10 16 0.00 0.00
3:53 am 03:53 Clear 76 24.4 73 22.8 91 91 S 16 26 29.52 1000 10 16 0.00 0.00
4:53 am 04:53 Clear 75 23.9 72 22.2 90 90 SSE 17 28 29.49 999 10 16 0.00 0.00
5:53 am 05:53 Sunny 74 23.3 70 21.1 88 88 S 6 9 29.55 1001 10 16 0.00 0.00
6:53 am 06:53 Sunny 74 23.3 70 21.1 88 88 Calm 29.58 1002 10 16 0.00 0.00
7:53 am 07:53 Sunny 77 25 69 20.6 77 77 SSE 8 13 29.56 1001 10 16 0.00 0.00
8:53 am 08:53 Sunny 79 26.1 70 21.1 74 74 S 16 26 29.54 1001 10 16 0.00 0.00
9:53 am 09:53 Sunny 82 27.8 70 21.1 67 67 S 14 22 29.54 1000 10 16 0.00 0.00
10:53 am 10:53 Sunny 84 28.9 70 21.1 63 63 SSW 20 31 29.54 1000 10 16 0.00 0.00
11:53 am 11:53 Sunny 87 30.6 71 21.7 59 59 SSW 15 24 29.55 1001 10 16 0.00 0.00
12:53 pm 12:53 Sunny 87 30.6 71 21.7 59 59 WSW 15 24 29.57 1001 10 16 0.00 0.00
1:53 pm 13:53 Partly Cloudy 88 31.1 71 21.7 57 57 SSW 13 20 29.57 1001 10 16 0.00 0.00
2:53 pm 14:53 Cloudy 86 30 71 21.7 61 61 SW 13 20 29.58 1002 10 16 0.00 0.00
3:53 pm 15:53 Sunny 88 31.1 70 21.1 55 55 VRB 5 7 29.55 1001 10 16 0.00 0.00
4:53 pm 16:53 Mostly Sunny 85 29.4 73 22.8 68 68 SSW 6 9 29.59 1002 10 16 0.00 0.00
5:53 pm 17:53 Mostly Sunny 84 28.9 74 23.3 72 72 S 8 13 29.58 1002 10 16 0.00 0.00
6:53 pm 18:53 Sunny 83 28.3 73 22.8 72 72 SSE 6 9 29.57 1001 10 16 0.00 0.00
7:53 pm 19:53 Sunny 84 28.9 73 22.8 70 70 SE 7 11 29.56 1001 10 16 0.00 0.00
8:53 pm 20:53 Mostly Cloudy 83 28.3 72 22.2 70 70 SSE 6 9 29.57 1002 10 16 0.00 0.00
9:53 pm 21:53 Mostly Cloudy 74 23.3 71 21.7 91 91 N 10 17 29.61 1003 10 16 0.00 0.00
10:53 pm 22:53 Clear 71 21.7 69 20.6 94 94 NNW 8 13 29.66 1004 10 16 0.00 0.00
11:53 pm 23:53 Partly Cloudy 72 22.2 69 20.6 91 91 WNW 13 20 29.72 1006 10 16 0.00 0.00

Powered by AerisWeather